www.pogodaiklimat.ru

Погода и климат >> Архив погоды >> Россия >> Ростовская область >> Ростов-на-Дону


АРХИВ ПОГОДЫ в Ростове-на-Дону

Время (UTC), дата Ветер
(напр.,м/с)
 
Видим.   Явления Облачность Т
(С)
Тd
(С)
f
(%)
Тe
(С)
Тes
(С)
Комфортность P
(гПа)
Po
(гПа)
Тmin
(С)
Tmax
(С)
R
(мм)
R24
(мм)
S
(см)
06 19.05 С 2 10 км 1/1 600 м
[Sc]
+11.5 +4.1 60 +11 +20 холодно 1015.2 1006.2
09 19.05 СЗ 2 10 км 5/5 600 м
[Sc]
+15.0 +3.8 47 +15 +24 холодно 1014.5 1005.6
12 19.05 С 4 10 км 5/4 600 м
[Sc Ac trans]
+15.3 +3.5 45 +14 +19 очень
холодно
1013.8 1004.9
15 19.05 СЗ 1 10 км 6/4 600 м
[Sc Ac trans]
+16.7 +2.5 38 +18 +19 по сезону 1012.8 1004.0 +16.9
18 19.05 СЗ 3 8000 м ясно +12.7 +6.5 66 +11 +11 холодно 1013.0 1004.1
21 19.05 СЗ 2 8000 м дым ясно +9.9 +6.4 79 +8 +8 холодно 1012.5 1003.5
00 20.05 СВ 2 6000 м дымка ясно +6.9 +5.6 91 +5 +5 очень
холодно
1011.7 1002.6
03 20.05 В 3 10 км 3/0
[Ac trans]
+9.2 +6.0 80 +7 +7 очень
холодно
1011.3 1002.3 +6.3
06 20.05 В 5 10 км 5/0
[Ac trans Ci fib]
+13.8 +5.0 55 +12 +16 холодно 1010.7 1001.8
09 20.05 Ю 2 10 км 8/1
[Sc Ac trans Ci fib]
+17.4 +6.3 48 +18 +28 прохладно 1010.1 1001.3
12 20.05 СВ 2 10 км 8/3
[Sc Ac trans Ci fib]
+18.8 +4.9 40 +20 +25 прохладно 1009.2 1000.5
15 20.05 В 2 10 км 8/3 2000 м
[Sc Ac trans Ci fib]
+18.9 +4.8 39 +20 +21 по сезону 1008.4 999.7 +19.4
18 20.05 С 1 8000 м 6/3 1000 м
[Sc Ac trans Ci fib]
+14.2 +5.9 57 +15 +15 прохладно 1009.4 1000.5
21 20.05 штиль 0 7000 м дым 4/0
[Ac trans Ci fib]
+10.2 +5.8 74 +10 +10 холодно 1008.7 999.7
00 21.05 СЗ 2 8000 м 3/0
[Ci fib]
+10.0 +3.3 63 +9 +9 прохладно 1008.1 999.1
03 21.05 СЗ 2 10 км 8/0
[Ac und Ci fib]
+11.1 +5.5 68 +10 +11 холодно 1007.7 998.8 +8.9
06 21.05 З 4 10 км 5/0
[Ac trans Ci fib]
+17.3 +6.9 50 +17 +22 по сезону 1006.9 998.2
09 21.05 З 7 10 км 5/4 1500 м
[Cu med, cong Ci fib]
+19.1 +7.6 47 +19 +22 по сезону 1007.5 998.8
12 21.05 З 5
{10}
10 км 5/4 1500 м
[Cu med, cong Ci fib]
+20.0 +8.3 47 +21 +25 комфорт 1007.2 998.5
15 21.05 З 7-10
{11}
10 км 5/3 1500 м
[Cu med, cong Ci fib]
+18.4 +7.1 48 +18 +18 по сезону 1007.2 998.5 +20.4
18 21.05 З 5
{11}
8000 м 4/0
[Ac trans Ci fib]
+15.0 +10.7 75 +14 +14 прохладно 1008.2 999.4
21 21.05 З 5 8000 м 4/0
[Ac trans Ci fib]
+14.9 +9.2 69 +14 +14 по сезону 1008.1 999.3
00 22.05 З 4 8000 м ясно +13.2 +6.1 62 +12 +12 по сезону 1007.8 998.9
03 22.05 З 4 7000 м дым 3/0
[Ci fib]
+13.2 +9.2 77 +12 +12 прохладно 1008.0 999.1 +12.2
06 22.05 З 6-10
{10}
10 км 5/1 600 м
[Cu med, cong Ac trans Ci fib]
+17.5 +9.3 59 +17 +20 по сезону 1008.0 999.3
09 22.05 З 5
{10}
10 км 9/1 600 м
[Cu med, cong Ac trans Ci fib]
+18.8 +9.7 55 +19 +24 по сезону 1008.2 999.5
12 22.05 З 7-11
{11}
10 км 8/3 600 м
[Cb calv Ac trans]
+19.2 +7.3 46 +19 +21 прохладно 1008.0 999.3
15 22.05 С 5
{11}
10 км 9/5 1000 м
[Cb calv Ac trans]
+15.3 +11.3 77 +14 +14 холодно 1009.5 1000.7 +20.2
18 22.05 СВ 4 8000 м 9/5 300 м
[Cb calv Ac trans]
+13.4 +10.0 80 +12 +12 холодно 1011.1 1002.2
21 22.05 СВ 4 8000 м 9/4 2000 м
[Cb calv Ac trans]
+12.4 +9.0 80 +10 +10 холодно 1012.1 1003.2
00 23.05 СВ 3 8000 м 8/1 1500 м
[Cb calv Ac trans]
+11.4 +8.5 82 +10 +10 прохладно 1012.4 1003.4
03 23.05 СВ 4 10 км 9/3 1500 м
[Cb calv Ac trans]
+11.2 +6.2 71 +9 +9 холодно 1013.6 1004.6 +10.9
06 23.05 СВ 4 10 км 9/0
[Ac trans]
+14.7 +6.0 56 +14 +17 прохладно 1015.2 1006.3
09 23.05 В 4 10 км 8/3 1500 м
[Cu hum Ac trans Ci fib]
+17.7 +4.3 41 +17 +23 прохладно 1015.6 1006.8
12 23.05 В 5 10 км 8/3 1500 м
[Cu hum Ac trans Ci fib]
+19.2 +3.8 36 +19 +22 прохладно 1015.7 1006.9
15 23.05 СВ 5 10 км 6/1 1500 м
[Cu hum Ac trans Ci fib]
+18.6 +3.1 36 +18 +19 прохладно 1015.9 1007.1 +19.2
18 23.05 СВ 4 8000 м 3/0
[Ac trans]
+12.6 +2.9 52 +11 +11 холодно 1017.8 1008.8
21 23.05 СВ 3 8000 м 4/0
[Ci fib]
+10.2 +3.0 61 +8 +8 очень
холодно
1018.5 1009.4
00 24.05 В 2 8000 м 3/0
[Ac trans Ci fib]
+9.6 +2.9 63 +8 +8 холодно 1018.9 1009.8
03 24.05 В 3 10 км 4/0
[Ac trans Ci fib]
+11.1 +4.1 62 +9 +10 холодно 1019.2 1010.2 +8.5
06 24.05 В 5 10 км 4/0
[Ac trans Ci fib]
+17.5 +3.3 39 +17 +22 по сезону 1019.5 1010.7
09 24.05 В 6-10
{10}
10 км 5/3 1000 м
[Sc Ac trans Ci fib]
+19.7 +4.3 36 +20 +24 по сезону 1019.4 1010.6
12 24.05 В 5
{10}
10 км 5/3 1000 м
[Cu hum Ac trans Ci fib]
+20.1 +4.1 35 +21 +25 комфорт 1018.9 1010.1
15 24.05 В 2 10 км 9/1 1000 м
[Sc Ac trans Ci]
+19.5 +4.4 37 +21 +22 комфорт 1018.5 1009.7 +20.7
18 24.05 Ю 3 8000 м 9/0
[Ac trans Ci fib]
+15.5 +9.7 68 +15 +15 прохладно 1019.7 1010.8
21 24.05 ЮЗ 4 8000 м 9/3 2000 м
[Sc Ac trans Ci fib]
+13.6 +9.7 77 +12 +12 прохладно 1020.5 1011.5
00 25.05 ЮЗ 4 8000 м 9/4 1000 м
[Cb calv Ac trans]
+11.8 +8.2 79 +10 +10 прохладно 1020.4 1011.4
03 25.05 ЮЗ 2 10 км 9/4 1000 м
[Cb calv Ac trans]
+12.0 +8.0 76 +11 +11 холодно 1020.8 1011.8 +11.2
06 25.05 В 2 10 км 9/5 800 м
[Sc Ac trans]
+14.7 +8.6 67 +14 +17 холодно 1020.8 1011.9
09 25.05 В 3 10 км 8/5 1500 м
[Cu med, cong Ci fib]
+18.8 +7.6 48 +19 +26 прохладно 1020.0 1011.2
12 25.05 ЮВ 3 10 км 8/5 1500 м
[Cu med, cong Ci fib]
+19.7 +6.5 42 +21 +25 комфорт 1019.1 1010.3
15 25.05 ЮВ 5 10 км 8/0
[Ac trans Ci fib]
+17.7 +7.4 51 +17 +18 прохладно 1018.8 1010.0 +19.9
18 25.05 ЮВ 1 8000 м 5/0
[Ac trans Ci fib]
+14.4 +6.8 60 +15 +15 прохладно 1018.8 1009.9
21 25.05 ЮВ 2 8000 м дым 3/0
[Ci fib]
+10.9 +5.6 70 +10 +10 холодно 1019.0 1010.0
00 26.05 С 1 8000 м дым ясно +9.3 +6.5 83 +9 +9 холодно 1018.5 1009.4
03 26.05 штиль 0 10 км ясно +12.1 +8.3 78 +12 +13 прохладно 1018.3 1009.3 +8.8

 

Местоположение метеостанции Ростов-на-Дону (Ростовская область, Россия): широта 47.27 долгота 39.82 высота над уровнем моря 75 м.

В архиве по умолчанию представлена погода в Ростове-на-Дону за последнюю неделю. Архивные данные за месяц целиком и за предыдущие месяцы, начиная с января 2011 года, Вы можете получить, выбрав интересующий диапазон дат из раскрывающегося списка и нажав кнопку "Ввод!".

Внимание! Время в таблицах - всемирное. Для получения местного времени необходимо прибавить поправку, которая в Ростове-на-Дону равна 3 ч.

Смотрите также архив погоды в соседних городах и на ближайших метеорологических станциях:

Погода в Шахтах (Ростовская область, Россия) (59 км)
Погода в Зерноград (Ростовская область, Россия) (60 км)
Погода в Таганроге (Ростовская область, Россия) (70 км)
Погода в Матвеевом Кургане (Ростовская область, Россия) (78 км)
Погода в Семикаракорске (Ростовская область, Россия) (81 км)
Погода в Маргаритово (Ростовская область, Россия) (81 км)
Погода в Кущевской (Краснодарский край, Россия) (84 км)
Погода в Константиновске (Ростовская область, Россия) (102 км)
Погода в Староминская (Краснодарский край, Россия) (102 км)
Погода в Каменск-Шахтинском (Ростовская область, Россия) (120 км)

Пояснения к столбцам:

Ветер - указаны скорость ветра в м/с - средняя за 10 мин, порывы в срок и между сроками (в фигурных скобках) и направление, откуда дует ветер: С - северный, СВ - северо-восточный, В - восточный, ЮВ - юго-восточный, Ю - южный, ЮЗ - юго-западный, З - западный, СЗ - северо-западный.
Видимость - горизонтальная дальность видимости в метрах или километрах. При видимости от 1 до 10 км при отсутствии осадков обычно наблюдается дымка, при ухудшении видимости до 1 км и менее - туман. В сухую погоду видимость может ухудшаться дымом, пылью или мглою.
Явления - указаны атмосферные явления, наблюдавшиеся в срок или в последний час перед сроком; фигурными скобками обозначены явления, наблюдавшиеся между сроками (за 1-3 часа до срока); квадратными скобками обозначены град или гололедные отложения с указанием их диаметра в мм.
Облачность - указаны через наклонную черту общая и нижняя облачность в баллах и высота нижней границы облаков в метрах; квадратными скобками обозначены формы облаков: Ci - перистые, Cs - перисто-слоистые, Cc - перисто-кучевые, Ac - высококучевые, As - высокослоистые, Sc - слоисто-кучевые, Ns - слоисто-дождевые, Cu - кучевые, Cb - кучево-дождевые. Подробнее классификацию облаков см. в Атласе облаков (PDF).
T - Температура воздуха - температура, измеренная на высоте 2 м над землей.
Td - Температура точки росы - температура, при понижении до которой содержащийся в воздухе водяной пар достигнет насыщения.
f - Относительная влажность воздуха - влажноcть воздуха, измеренная на высоте 2 м над землей.
Te - Эффективная температура - температура, которую ощущает одетый по сезону человек в тени. Характеристика душности погоды. При расчете учитывается влияние влажности воздуха и скорости ветра на теплоощущения человека.
Tes - Эффективная температура на солнце - температура, которую ощущает человек, с поправкой на солнечный нагрев. Характеристика знойности погоды. Зависит от высоты солнца над горизонтом, облачности и скорости ветра. Ночью, в пасмурную погоду, а также при ветре 12 м/с и более поправка равна нулю.
P - Атмосферное давление - приведенное к уровню моря атмосферное давление.
Po - Атмосферное давление - измеренное на уровне метеостанции атмосферное давление.
Tmin - Минимальная температура - минимум температуры воздуха на высоте 2 м над землей.
Tmax - Максимальная температура - максимум температуры воздуха на высоте 2 м над землей.
R - Количество осадков - Количество выпавших осадков за период времени, мм. При наведении курсора мыши на число - период времени, за который выпало указанное количество осадков.
R24 - Количество осадков - Количество выпавших осадков за 24 часа, мм.
S - Снежный покров - Высота снежного покрова, см. При наведении курсора мыши на число - состояние снежного покрова и степень покрытия местности в баллах.